Location: Roland
(31.1349°N, 85.4372°W)
Time: 01:57:31
(UTC+00:00)

S-56A Canister/Altair - Pass Details

Date: 21 April 2021
Orbit: 632 x 2500 km, 38.9° (Epoch: 06 May)

Event Time Altitude Azimuth Distance (km) Brightness Sun altitude
Rises 03:09:18 0° 230° (SW) 5,474 12.0 -33.7°
Reaches altitude 10° 03:13:23 10° 228° (SW) 4,204 11.3 -34.3°
Enters shadow 03:19:28 35° 216° (SW) 2,326 9.8 -35.2°
